Weather History for KMQE - March, 2014

Change the Weather History Date:

Friday, March 28, 2014

  Actual Average (KBOS) Record (KBOS)
Temperature  
Mean Temperature 44 °F 42 °F  
Max Temperature 57 °F 49 °F 85 °F (1998)
Min Temperature 32 °F 35 °F 11 °F (1923)
Degree Days  
Heating Degree Days 22 23  
Month to date heating degree days 761  
Since 1 July heating degree days 4803  
Cooling Degree Days 0 0  
Month to date cooling degree days 0  
Year to date cooling degree days 0  
Moisture  
Dew Point 36 °F    
Average Humidity 75    
Maximum Humidity 96    
Minimum Humidity 59    
Precipitation  
Precipitation 0.07 in 0.15 in 2.43 in (1932)
Month to date precipitation 3.91  
Year to date precipitation 10.52  
Sea Level Pressure  
Sea Level Pressure 30.10 in    
Wind  
Wind Speed 18 mph (SSW)    
Max Wind Speed 24 mph    
Max Gust Speed 39 mph    
T = Trace of Precipitation, MM = Missing Value Source: NWS Daily Summary

Daily Weather History Graph

Daily Weather History Graph

Search for Another Location

Airport or City:

Trip Planner

Search our weather history database for the weather conditions in past years. The results will help you decide how hot, cold, wet, or windy it might be!

Date:

Astronomy

Mar. 28, 2014 Rise Set
Actual Time 6:33 AM EDT 7:05 PM EDT
Civil Twilight 6:05 AM EDT 7:33 PM EDT
Nautical Twilight 5:32 AM EDT 8:07 PM EDT
Astronomical Twilight 4:58 AM EDT 8:41 PM EDT
Moon 5:05 AM EDT (3/28) 4:56 PM EDT (3/28)
Length of Visible Light 13h 28m
Length of Day
12h 31m
Waning Crescent, 6% of the Moon is Illuminated
Mar 28
Waning Crescent
Mar 30
New
Apr 7
First Quarter
Apr 15
Full
Apr 22
Last Quarter

Hourly Weather History & Observations

Time (EDT) Temp. Windchill Dew Point Humidity Pressure Visibility Wind Dir Wind Speed Gust Speed Precip Events Conditions
12:54 AM 32.0 °F 20.8 °F 19.0 °F 59% 30.26 in - SSW 17.3 mph 25.3 mph N/A   Unknown
1:54 AM 33.1 °F 22.2 °F 21.9 °F 64% 30.24 in - SSW 17.3 mph 24.2 mph N/A   Unknown
2:54 AM 34.0 °F 22.7 °F 21.9 °F 61% 30.22 in - SSW 19.6 mph 24.2 mph N/A   Unknown
3:54 AM 34.0 °F 24.6 °F 21.0 °F 59% 30.21 in - SSW 13.8 mph 24.2 mph N/A   Unknown
4:54 AM 35.1 °F 25.9 °F 23.0 °F 61% 30.20 in - South 13.8 mph - N/A   Unknown
5:54 AM 34.0 °F 23.4 °F 24.1 °F 67% 30.19 in - South 17.3 mph - N/A   Unknown
6:54 AM 34.0 °F 23.8 °F 28.0 °F 79% 30.19 in - South 16.1 mph 24.2 mph N/A   Unknown
7:54 AM 36.0 °F 25.6 °F 30.9 °F 82% 30.18 in - South 18.4 mph 25.3 mph N/A   Unknown
8:54 AM 39.9 °F 30.8 °F 33.1 °F 77% 30.15 in - South 18.4 mph - N/A   Unknown
9:54 AM 45.0 °F 37.1 °F 35.1 °F 68% 30.12 in - SSW 19.6 mph 29.9 mph N/A   Unknown
10:54 AM 48.9 °F - 37.9 °F 66% 30.10 in - SSW 19.6 mph 32.2 mph N/A   Unknown
11:54 AM 52.0 °F - 39.0 °F 61% 30.08 in - SSW 21.9 mph 32.2 mph N/A   Unknown
12:54 PM 54.0 °F - 39.9 °F 59% 30.03 in - SSW 23.0 mph 35.7 mph N/A   Unknown
1:54 PM 55.0 °F - 41.0 °F 59% 30.01 in - SSW 20.7 mph 36.8 mph N/A   Unknown
2:54 PM 53.1 °F - 41.0 °F 64% 29.99 in - SSW 24.2 mph 39.1 mph N/A   Unknown
3:54 PM 48.0 °F - 46.0 °F 93% 29.99 in - SSW 19.6 mph 31.1 mph 0.01 in   Unknown
4:54 PM 50.0 °F - 46.0 °F 86% 29.98 in - SSW 23.0 mph 31.1 mph 0.01 in   Unknown
5:54 PM 51.1 °F - 46.0 °F 83% 30.00 in - SSW 24.2 mph 38.0 mph N/A   Unknown
6:54 PM 48.9 °F - 46.9 °F 93% 30.01 in - SSW 19.6 mph - 0.03 in   Unknown
7:54 PM 48.9 °F - 46.9 °F 93% 30.01 in - SSW 20.7 mph 28.8 mph 0.01 in   Unknown
8:54 PM 48.0 °F - 46.9 °F 96% 30.04 in - SW 19.6 mph 26.5 mph N/A   Unknown
9:54 PM 48.0 °F - 46.0 °F 93% 30.03 in - SSW 18.4 mph - N/A   Unknown
10:54 PM 48.9 °F - 46.0 °F 90% 30.03 in - SW 18.4 mph 25.3 mph N/A   Unknown
11:54 PM 48.0 °F - 46.9 °F 96% 30.03 in - SSW 17.3 mph - 0.01 in   Unknown